If you wish to contribute or participate in the discussions about articles you are invited to join SKYbrary as a registered user

 Actions

Angelholm Helsingborg Airport

From SKYbrary Wiki

ESTA
Airport
ICAO: ESTA
Summary
Name Angelholm Helsingborg Airport
Region Europe
Territory Sweden SE.gif
Location Angelholm, Sweden
Serving
Coordinates 56° 17' 28.00" N, 12° 51' 18.00" E
Runways
Designator Length Width Surface ROPS
4/22 1997 m6,551.837 ft
40 m131.234 ft
ASP /
14/32 1945 m6,381.234 ft
40 m131.234 ft
ASP yes/yes


METAR
Observation ESTA 221350Z 13008KT 9999 FEW028 03/M03 Q1043
Station ANGELHOLM (SWE-A
Date/Time 22 February 2019 13:50:00
Wind direction 130°
Wind speed 08 kts
Lowest cloud amount few clouds
Temperature 3°C
Dew point
Humidity 64%
QNH 1043 hPa
Weather condition n/a

Angelholm-Helsingborg Airport

ICAO: ESTA IATA: AGH

Description

Airport serving towns of Angelholm and Helsingborg, southwest Sweden.

Climatology

Temperate Marine climate/Oceanic climate (Köppen climate classification Cfb). Moderately cool summer and comparatively warm winter.

Maps

Terrain

Loading map...

Airport Layout

Loading map...


Accidents & Serious Incidents at or in vicinity of ESTA

None on SKYbrary